DateTimeUTC,F1_A11,F1_S11,BsB_S11,BsG_S11,BsR_S11,BbsB_S11,BbsG_S11,BbsR_S11,BaB_A11,BaG_A11,BaR_A11,Tu_S11,T_S11,Uu_S11,U_S11,P_S11,T1_A11
2021-08-13T06:00:00Z,00000200,20000000,,,,,,,0000.32,0000.33,0000.08,17.9,24.9,05.0,03.3,0675.9,30.8
2021-08-13T06:01:00Z,00000200,20000000,,,,,,,0000.03,-000.31,-000.13,18.0,24.9,05.2,03.4,0675.9,30.9
2021-08-13T06:02:00Z,00000200,20000000,,,,,,,-000.19,0000.22,-000.06,18.0,24.9,05.3,03.5,0675.9,30.9
2021-08-13T06:03:00Z,00000200,60000000,,,,,,,0000.11,0000.24,0000.34,18.1,25.0,05.3,03.5,0675.9,30.9
2021-08-13T06:04:00Z,00000200,40000000,0001.87,0001.24,0001.08,0000.68,0000.14,-000.04,0000.44,0000.31,0000.39,18.4,24.9,05.4,03.7,0676.9,30.9
2021-08-13T06:05:00Z,00000200,00000000,0001.76,0001.57,0001.13,0000.42,0000.30,-000.07,0000.38,0000.54,0000.32,18.5,24.8,05.4,03.6,0676.9,30.9
2021-08-13T06:06:00Z,00000200,00000000,0001.87,0001.52,0000.90,0000.64,0000.06,0000.24,0000.50,0000.38,0000.04,18.5,24.8,05.5,03.8,0676.9,30.9
2021-08-13T06:07:00Z,00000200,00000000,0002.00,0001.38,0000.98,0001.17,0000.10,-000.23,0000.20,0000.23,0000.48,18.4,24.8,05.5,03.7,0677.0,30.9
2021-08-13T06:08:00Z,00000200,00000000,0001.88,0001.24,0000.80,0001.13,-000.06,-000.07,0000.35,0000.26,-000.01,18.4,24.7,05.6,03.8,0677.0,30.9
2021-08-13T06:09:00Z,00000200,00000000,0002.37,0001.48,0001.04,0000.38,-000.14,-000.02,0000.25,0000.08,0000.48,18.4,24.7,05.7,03.8,0677.0,30.8
2021-08-13T06:10:00Z,00000200,00000000,0001.88,0001.57,0001.04,0000.55,0000.18,0000.01,0000.68,0000.38,-000.12,18.3,24.7,05.7,03.8,0676.9,30.8
2021-08-13T06:11:00Z,00000200,00000000,0001.25,0001.19,0000.97,0000.23,0000.30,-000.02,0000.36,0000.54,0000.61,18.3,24.7,05.8,03.9,0676.9,30.8
2021-08-13T06:12:00Z,00000200,00000000,0002.85,0001.39,0000.98,0000.70,0000.34,0000.04,0000.39,0000.62,0000.40,18.3,24.7,05.8,03.9,0676.9,30.8
2021-08-13T06:13:00Z,00000200,00000000,0001.06,0001.36,0000.97,0000.35,0000.23,0000.02,0000.51,0000.19,0000.37,18.3,24.7,05.8,03.9,0676.9,30.8
2021-08-13T06:14:00Z,00000200,00000000,0001.27,0001.53,0001.16,0000.57,0000.14,0000.18,0000.50,0000.35,0000.22,18.4,24.7,05.9,04.0,0676.9,30.9
2021-08-13T06:15:00Z,00000200,00000000,0001.80,0001.35,0000.82,-000.04,0000.02,-000.04,0000.13,0000.60,0000.30,18.4,24.7,05.9,04.0,0676.8,30.9
2021-08-13T06:16:00Z,00000200,00000000,0001.56,0001.50,0001.17,0000.63,0000.04,-000.01,0000.41,0000.43,0000.40,18.5,24.8,05.9,04.0,0676.8,30.9
2021-08-13T06:17:00Z,00000200,00000000,0001.34,0001.37,0001.14,0000.56,0000.01,-000.10,0000.57,0000.07,0000.01,18.5,24.8,05.9,04.0,0676.8,30.9
2021-08-13T06:18:00Z,00000200,00000000,0002.13,0001.38,0000.64,0000.78,0000.23,0000.12,0000.00,0000.40,0000.34,18.5,24.8,06.0,04.1,0676.8,30.9
2021-08-13T06:19:00Z,00000200,00000000,0002.67,0001.34,0000.89,0000.29,0000.29,-000.12,0000.62,0000.38,0000.42,18.4,24.7,05.9,04.0,0676.8,30.8
2021-08-13T06:20:00Z,00000200,00000000,0002.36,0001.55,0001.08,0000.41,0000.37,0000.36,0000.34,0000.47,0000.33,18.4,24.7,05.9,04.0,0676.8,30.8
2021-08-13T06:21:00Z,00000200,00000000,0001.52,0001.54,0001.24,0000.21,0000.33,0000.17,0000.54,0000.25,0000.44,18.3,24.7,06.0,04.1,0676.8,30.8
2021-08-13T06:22:00Z,00000200,00000000,0001.50,0001.70,0000.82,0001.17,0000.24,0000.13,0000.24,0000.13,-000.10,18.3,24.7,06.0,04.1,0676.8,30.8
2021-08-13T06:23:00Z,00000200,00000000,0001.83,0001.22,0000.80,0000.58,0000.08,-000.09,0000.37,0000.66,0000.61,18.3,24.7,06.0,04.0,0676.8,30.8
2021-08-13T06:24:00Z,00000200,00000000,0002.75,0001.45,0001.05,0000.13,0000.37,0000.03,0000.28,0000.03,0000.15,18.3,24.6,06.0,04.1,0676.8,30.8
2021-08-13T06:25:00Z,00000200,00000000,0002.16,0001.20,0000.98,0000.53,0000.49,0000.20,0000.61,0000.62,0000.21,18.2,24.6,06.1,04.1,0676.8,30.8
2021-08-13T06:26:00Z,00000200,00000000,0001.76,0001.27,0000.84,0000.57,0000.62,0000.16,0000.71,0000.16,0000.48,18.2,24.6,06.0,04.1,0676.8,30.8
2021-08-13T06:27:00Z,00000200,00000000,0001.66,0001.41,0000.94,0000.50,0000.03,0000.00,0000.16,0000.56,0000.26,18.2,24.6,06.1,04.1,0676.7,30.8
2021-08-13T06:28:00Z,00000200,00000000,0001.44,0001.59,0000.98,0000.49,0000.16,0000.21,0000.28,0000.51,0000.07,18.2,24.6,06.1,04.2,0676.7,30.8
2021-08-13T06:29:00Z,00000200,00000000,0002.14,0001.46,0000.83,0000.77,-000.04,0000.33,0000.71,0000.26,0000.42,18.3,24.6,06.2,04.2,0676.7,30.8
2021-08-13T06:30:00Z,00000200,00000000,0001.33,0001.20,0001.42,0000.12,0000.44,0000.07,0000.56,0000.54,0000.42,18.4,24.7,06.1,04.1,0676.7,30.8
2021-08-13T06:31:00Z,00000200,00000000,0002.08,0001.48,0000.78,-000.16,0000.05,-000.11,0000.13,0000.42,0000.37,18.5,24.7,06.1,04.1,0676.7,30.9
2021-08-13T06:32:00Z,00000200,00000000,0001.81,0001.36,0000.82,0000.71,0000.26,0000.04,0000.00,0000.11,0000.23,18.5,24.7,06.1,04.2,0676.7,30.9
2021-08-13T06:33:00Z,00000200,00000000,0001.53,0001.08,0001.07,0000.58,0000.27,0000.15,0000.75,0000.24,0000.13,18.5,24.8,06.0,04.1,0676.7,30.9
2021-08-13T06:34:00Z,00000200,00000000,0002.03,0001.73,0000.70,0000.20,0000.28,-000.10,0000.06,0000.29,0000.33,18.5,24.7,06.1,04.1,0676.7,30.9
2021-08-13T06:35:00Z,00000200,00000000,0001.94,0001.33,0000.92,0000.46,0000.14,0000.13,0000.32,0000.53,0000.03,18.4,24.7,06.2,04.2,0676.6,30.9
2021-08-13T06:36:00Z,00000200,00000000,0002.65,0001.29,0001.12,0000.19,0000.14,0000.06,0000.54,0000.35,0000.09,18.4,24.7,06.1,04.1,0676.6,30.8
2021-08-13T06:37:00Z,00000200,00000000,0002.40,0001.18,0000.95,0000.40,0000.07,0000.01,0000.27,0000.14,0000.57,18.4,24.7,06.1,04.1,0676.6,30.8
2021-08-13T06:38:00Z,00000200,00000000,0002.05,0001.37,0001.27,0000.68,0000.29,0000.23,0000.46,0000.32,0000.06,18.3,24.6,06.1,04.2,0676.6,30.8
2021-08-13T06:39:00Z,00000200,00000000,0001.96,0001.22,0001.03,0001.04,0000.11,0000.10,-000.07,0000.05,0000.21,18.3,24.6,06.2,04.2,0676.6,30.8
2021-08-13T06:40:00Z,00000200,00000000,0002.02,0001.62,0000.56,0000.14,0000.04,-000.28,0000.61,0000.84,0000.35,18.3,24.6,06.2,04.2,0676.6,30.8
2021-08-13T06:41:00Z,00000200,00000000,0001.59,0001.67,0000.74,0000.36,0000.40,0000.11,0000.65,0000.12,0000.62,18.2,24.6,06.2,04.2,0676.6,30.8
2021-08-13T06:42:00Z,00000200,00000000,0001.61,0001.59,0001.15,0000.14,0000.25,0000.05,0000.42,0000.63,0000.14,18.2,24.6,06.3,04.2,0676.6,30.8
2021-08-13T06:43:00Z,00000200,00000000,0002.24,0001.39,0000.91,0000.55,0000.22,0000.01,0000.31,0000.26,0000.64,18.3,24.6,06.3,04.3,0676.6,30.8
2021-08-13T06:44:00Z,00000200,00000000,0002.82,0001.68,0001.16,0000.41,0000.16,0000.11,0000.51,0000.51,-000.12,18.3,24.6,06.2,04.2,0676.6,30.8
2021-08-13T06:45:00Z,00000200,00000000,0002.45,0001.31,0001.08,0000.39,0000.35,-000.12,0000.43,0000.14,0000.40,18.4,24.7,06.1,04.2,0676.6,30.9
2021-08-13T06:46:00Z,00000200,00000000,0002.02,0001.37,0001.23,0000.35,0000.24,0000.09,0000.46,0000.70,0000.53,18.5,24.7,06.3,04.3,0676.6,30.9
2021-08-13T06:47:00Z,00000200,00000000,0001.98,0001.68,0001.11,0000.45,0000.24,-000.03,0000.52,0000.10,0000.41,18.5,24.7,06.1,04.2,0676.6,30.9
2021-08-13T06:48:00Z,00000200,00000000,0002.28,0001.51,0001.07,0000.62,0000.11,0000.19,-000.04,0000.26,-000.28,18.6,24.8,06.3,04.3,0676.6,30.9
2021-08-13T06:49:00Z,00000200,00000000,0002.17,0001.49,0001.00,0000.49,0000.03,-000.15,0000.23,0000.39,0000.46,18.5,24.7,06.1,04.2,0676.6,30.9
2021-08-13T06:50:00Z,00000200,00000000,0002.66,0001.75,0000.96,0000.41,0000.01,-000.12,0000.75,0000.48,0000.15,18.5,24.7,06.1,04.2,0676.6,30.9
2021-08-13T06:51:00Z,00000200,00000000,0001.91,0001.49,0000.99,0000.39,0000.25,0000.06,0000.32,0000.48,0000.43,18.5,24.7,06.2,04.2,0676.6,30.8
2021-08-13T06:52:00Z,00000200,00000000,0001.42,0001.25,0000.66,0000.31,0000.38,0000.15,0000.68,0000.23,0000.41,18.4,24.7,06.3,04.3,0676.5,30.8
2021-08-13T06:53:00Z,00000200,00000000,0002.23,0001.52,0000.89,0000.79,0000.18,-000.06,0000.00,0000.12,0000.11,18.4,24.6,06.2,04.2,0676.6,30.8
2021-08-13T06:54:00Z,00000200,00000000,0001.72,0001.77,0001.23,0000.90,0000.09,0000.24,0000.30,0000.39,0000.23,18.3,24.6,06.3,04.3,0676.6,30.8
2021-08-13T06:55:00Z,00000200,00000000,0001.86,0001.68,0001.16,0000.33,0000.26,-000.07,0000.34,0000.38,0000.24,18.3,24.6,06.2,04.2,0676.6,30.8
2021-08-13T06:56:00Z,00000200,00000000,0002.14,0001.25,0000.89,0000.69,0000.47,-000.17,0000.55,0000.50,0000.34,18.3,24.6,06.2,04.2,0676.6,30.8
2021-08-13T06:57:00Z,00000200,40000000,,,,,,,0000.34,-000.05,0000.06,18.3,24.6,06.5,04.4,0676.5,30.8
2021-08-13T06:58:00Z,00000200,60000000,,,,,,,-000.14,0000.36,0000.07,18.0,24.7,06.2,04.1,0675.6,30.8
2021-08-13T06:59:00Z,00000200,20000000,,,,,,,0000.29,0000.06,0000.38,18.0,24.8,06.3,04.1,0675.5,30.8
